Year,Month,Day,Hour,Minute,Value (Times are PST for temperature in C)
2011,04,26,00,00,5.60
2011,04,26,00,01,5.60
2011,04,26,00,02,5.60
2011,04,26,00,03,5.60
2011,04,26,00,04,5.60
2011,04,26,00,05,5.60
2011,04,26,00,06,5.60
2011,04,26,00,07,5.60
2011,04,26,00,08,5.60
2011,04,26,00,09,5.60
2011,04,26,00,10,5.60
2011,04,26,00,11,5.50
2011,04,26,00,12,5.50
2011,04,26,00,13,5.50
2011,04,26,00,14,5.40
2011,04,26,00,15,5.40
2011,04,26,00,16,5.30
2011,04,26,00,17,5.30
2011,04,26,00,18,5.30
2011,04,26,00,19,5.20
2011,04,26,00,20,5.20
2011,04,26,00,21,5.20
2011,04,26,00,22,5.20
2011,04,26,00,23,5.10
2011,04,26,00,24,5.10
2011,04,26,00,25,5.10
2011,04,26,00,26,5.10
2011,04,26,00,27,5.00
2011,04,26,00,28,5.00
2011,04,26,00,29,5.00
2011,04,26,00,30,5.00
2011,04,26,00,31,5.00
2011,04,26,00,32,4.90
2011,04,26,00,33,4.90
2011,04,26,00,34,4.90
2011,04,26,00,35,4.90
2011,04,26,00,36,4.90
2011,04,26,00,37,4.90
2011,04,26,00,38,4.90
2011,04,26,00,39,5.00
2011,04,26,00,40,5.00
2011,04,26,00,41,5.10
2011,04,26,00,42,5.10
2011,04,26,00,43,5.20
2011,04,26,00,44,5.20
2011,04,26,00,45,5.30
2011,04,26,00,46,5.30
2011,04,26,00,47,5.40
2011,04,26,00,48,5.40
2011,04,26,00,49,5.40
2011,04,26,00,50,5.50
2011,04,26,00,51,5.50
2011,04,26,00,52,5.60
2011,04,26,00,53,5.60
2011,04,26,00,54,5.60
2011,04,26,00,55,5.70
2011,04,26,00,56,5.70
2011,04,26,00,57,5.70
2011,04,26,00,58,5.70
2011,04,26,00,59,5.70
2011,04,26,01,00,5.70
2011,04,26,01,01,5.70
2011,04,26,01,02,5.70
2011,04,26,01,03,5.60
2011,04,26,01,04,5.60
2011,04,26,01,05,5.70
2011,04,26,01,06,5.70
2011,04,26,01,07,5.70
2011,04,26,01,08,5.70
2011,04,26,01,09,5.70
2011,04,26,01,10,5.70
2011,04,26,01,11,5.80
2011,04,26,01,12,5.80
2011,04,26,01,13,5.80
2011,04,26,01,14,5.80
2011,04,26,01,15,5.80
2011,04,26,01,16,5.80
2011,04,26,01,17,5.80
2011,04,26,01,18,5.80
2011,04,26,01,19,5.80
2011,04,26,01,20,5.80
2011,04,26,01,21,5.80
2011,04,26,01,22,5.80
2011,04,26,01,23,5.80
2011,04,26,01,24,5.80
2011,04,26,01,25,5.70
2011,04,26,01,26,5.70
2011,04,26,01,27,5.70
2011,04,26,01,28,5.70
2011,04,26,01,29,5.60
2011,04,26,01,30,5.50
2011,04,26,01,31,5.40
2011,04,26,01,32,5.40
2011,04,26,01,33,5.30
2011,04,26,01,34,5.30
2011,04,26,01,35,5.20
2011,04,26,01,36,5.20
2011,04,26,01,37,5.20
2011,04,26,01,38,5.20
2011,04,26,01,39,5.10
2011,04,26,01,40,5.10
2011,04,26,01,41,5.10
2011,04,26,01,42,5.10
2011,04,26,01,43,5.00
2011,04,26,01,44,5.00
2011,04,26,01,45,5.00
2011,04,26,01,46,5.00
2011,04,26,01,47,5.00
2011,04,26,01,48,5.00
2011,04,26,01,49,5.00
2011,04,26,01,50,5.00
2011,04,26,01,51,5.00
2011,04,26,01,52,5.00
2011,04,26,01,53,5.00
2011,04,26,01,54,5.10
2011,04,26,01,55,5.10
2011,04,26,01,56,5.10
2011,04,26,01,57,5.10
2011,04,26,01,58,5.10
2011,04,26,01,59,5.10
2011,04,26,02,00,5.10
2011,04,26,02,01,5.00
2011,04,26,02,02,5.00
2011,04,26,02,03,5.00
2011,04,26,02,04,5.00
2011,04,26,02,05,5.00
2011,04,26,02,06,5.00
2011,04,26,02,07,5.00
2011,04,26,02,08,5.00
2011,04,26,02,09,5.00
2011,04,26,02,10,5.00
2011,04,26,02,11,5.00
2011,04,26,02,12,5.00
2011,04,26,02,13,4.90
2011,04,26,02,14,4.90
2011,04,26,02,15,4.80
2011,04,26,02,16,4.80
2011,04,26,02,17,4.80
2011,04,26,02,18,4.80
2011,04,26,02,19,4.70
2011,04,26,02,20,4.70
2011,04,26,02,21,4.70
2011,04,26,02,22,4.60
2011,04,26,02,23,4.60
2011,04,26,02,24,4.60
2011,04,26,02,25,4.50
2011,04,26,02,26,4.50
2011,04,26,02,27,4.40
2011,04,26,02,28,4.40
2011,04,26,02,29,4.40
2011,04,26,02,30,4.40
2011,04,26,02,31,4.30
2011,04,26,02,32,4.30
2011,04,26,02,33,4.30
2011,04,26,02,34,4.30
2011,04,26,02,35,4.30
2011,04,26,02,36,4.40
2011,04,26,02,37,4.40
2011,04,26,02,38,4.50
2011,04,26,02,39,4.60
2011,04,26,02,40,4.60
2011,04,26,02,41,4.70
2011,04,26,02,42,4.70
2011,04,26,02,43,4.70
2011,04,26,02,44,4.80
2011,04,26,02,45,4.80
2011,04,26,02,46,4.90
2011,04,26,02,47,5.00
2011,04,26,02,48,5.00
2011,04,26,02,49,5.10
2011,04,26,02,50,5.20
2011,04,26,02,51,5.20
2011,04,26,02,52,5.20
2011,04,26,02,53,5.20
2011,04,26,02,54,5.20
2011,04,26,02,55,5.20
2011,04,26,02,56,5.10
2011,04,26,02,57,5.10
2011,04,26,02,58,5.00
2011,04,26,02,59,4.90
2011,04,26,03,00,4.90
2011,04,26,03,01,4.80
2011,04,26,03,02,4.80
2011,04,26,03,03,4.70
2011,04,26,03,04,4.70
2011,04,26,03,05,4.60
2011,04,26,03,06,4.60
2011,04,26,03,07,4.60
2011,04,26,03,08,4.50
2011,04,26,03,09,4.50
2011,04,26,03,10,4.40
2011,04,26,03,11,4.40
2011,04,26,03,12,4.40
2011,04,26,03,13,4.40
2011,04,26,03,14,4.40
2011,04,26,03,15,4.40
2011,04,26,03,16,4.40
2011,04,26,03,17,4.40
2011,04,26,03,18,4.40
2011,04,26,03,19,4.40
2011,04,26,03,20,4.50
2011,04,26,03,21,4.50
2011,04,26,03,22,4.50
2011,04,26,03,23,4.50
2011,04,26,03,24,4.50
2011,04,26,03,25,4.40
2011,04,26,03,26,4.40
2011,04,26,03,27,4.40
2011,04,26,03,28,4.30
2011,04,26,03,29,4.30
2011,04,26,03,30,4.30
2011,04,26,03,31,4.20
2011,04,26,03,32,4.20
2011,04,26,03,33,4.20
2011,04,26,03,34,4.10
2011,04,26,03,35,4.10
2011,04,26,03,36,4.10
2011,04,26,03,37,4.10
2011,04,26,03,38,4.00
2011,04,26,03,39,4.00
2011,04,26,03,40,4.00
2011,04,26,03,41,4.00
2011,04,26,03,42,4.00
2011,04,26,03,43,4.00
2011,04,26,03,44,4.00
2011,04,26,03,45,4.10
2011,04,26,03,46,4.10
2011,04,26,03,47,4.10
2011,04,26,03,48,4.10
2011,04,26,03,49,4.10
2011,04,26,03,50,4.10
2011,04,26,03,51,4.10
2011,04,26,03,52,4.10
2011,04,26,03,53,4.10
2011,04,26,03,54,4.10
2011,04,26,03,55,4.10
2011,04,26,03,56,4.10
2011,04,26,03,57,4.10
2011,04,26,03,58,4.10
2011,04,26,03,59,4.10
2011,04,26,04,00,4.10
2011,04,26,04,01,4.10
2011,04,26,04,02,4.10
2011,04,26,04,03,4.10
2011,04,26,04,04,4.10
2011,04,26,04,05,4.10
2011,04,26,04,06,4.10
2011,04,26,04,07,4.10
2011,04,26,04,08,4.10
2011,04,26,04,09,4.10
2011,04,26,04,10,4.10
2011,04,26,04,11,4.10
2011,04,26,04,12,4.00
2011,04,26,04,13,4.00
2011,04,26,04,14,4.00
2011,04,26,04,15,4.00
2011,04,26,04,16,4.00
2011,04,26,04,17,4.00
2011,04,26,04,18,4.00
2011,04,26,04,19,4.00
2011,04,26,04,20,4.00
2011,04,26,04,21,4.00
2011,04,26,04,22,4.00
2011,04,26,04,23,4.00
2011,04,26,04,24,4.00
2011,04,26,04,25,4.00
2011,04,26,04,26,4.00
2011,04,26,04,27,4.00
2011,04,26,04,28,4.00
2011,04,26,04,29,4.10
2011,04,26,04,30,4.10
2011,04,26,04,31,4.10
2011,04,26,04,32,4.00
2011,04,26,04,33,4.00
2011,04,26,04,34,4.00
2011,04,26,04,35,3.90
2011,04,26,04,36,3.90
2011,04,26,04,37,3.90
2011,04,26,04,38,3.90
2011,04,26,04,39,3.90
2011,04,26,04,40,3.90
2011,04,26,04,41,3.90
2011,04,26,04,42,3.90
2011,04,26,04,43,3.90
2011,04,26,04,44,3.90
2011,04,26,04,45,3.90
2011,04,26,04,46,3.90
2011,04,26,04,47,3.80
2011,04,26,04,48,3.80
2011,04,26,04,49,3.80
2011,04,26,04,50,3.80
2011,04,26,04,51,3.80
2011,04,26,04,52,3.80
2011,04,26,04,53,3.80
2011,04,26,04,54,3.80
2011,04,26,04,55,3.80
2011,04,26,04,56,3.80
2011,04,26,04,57,3.80
2011,04,26,04,58,3.80
2011,04,26,04,59,3.80
2011,04,26,05,00,3.80
2011,04,26,05,01,3.80
2011,04,26,05,02,3.70
2011,04,26,05,03,3.70
2011,04,26,05,04,3.70
2011,04,26,05,05,3.80
2011,04,26,05,06,3.70
2011,04,26,05,07,3.70
2011,04,26,05,08,3.70
2011,04,26,05,09,3.70
2011,04,26,05,10,3.70
2011,04,26,05,11,3.70
2011,04,26,05,12,3.70
2011,04,26,05,13,3.60
2011,04,26,05,14,3.70
2011,04,26,05,15,3.70
2011,04,26,05,16,3.70
2011,04,26,05,17,3.70
2011,04,26,05,18,3.80
2011,04,26,05,19,3.80
2011,04,26,05,20,3.90
2011,04,26,05,21,3.90
2011,04,26,05,22,4.00
2011,04,26,05,23,4.00
2011,04,26,05,24,4.10
2011,04,26,05,25,4.10
2011,04,26,05,26,4.10
2011,04,26,05,27,4.20
2011,04,26,05,28,4.20
2011,04,26,05,29,4.20
2011,04,26,05,30,4.20
2011,04,26,05,31,4.20
2011,04,26,05,32,4.20
2011,04,26,05,33,4.30
2011,04,26,05,34,4.30
2011,04,26,05,35,4.30
2011,04,26,05,36,4.30
2011,04,26,05,37,4.30
2011,04,26,05,38,4.30
2011,04,26,05,39,4.30
2011,04,26,05,40,4.30
2011,04,26,05,41,4.30
2011,04,26,05,42,4.30
2011,04,26,05,43,4.30
2011,04,26,05,44,4.30
2011,04,26,05,45,4.30
2011,04,26,05,46,4.30
2011,04,26,05,47,4.30
2011,04,26,05,48,4.20
2011,04,26,05,49,4.20
2011,04,26,05,50,4.20
2011,04,26,05,51,4.20
2011,04,26,05,52,4.20
2011,04,26,05,53,4.20
2011,04,26,05,54,4.20
2011,04,26,05,55,4.20
2011,04,26,05,56,4.20
2011,04,26,05,57,4.10
2011,04,26,05,58,4.10
2011,04,26,05,59,4.10
2011,04,26,06,00,4.00
2011,04,26,06,01,4.00
2011,04,26,06,02,3.90
2011,04,26,06,03,3.90
2011,04,26,06,04,3.90
2011,04,26,06,05,3.80
2011,04,26,06,06,3.80
2011,04,26,06,07,3.80
2011,04,26,06,08,3.70
2011,04,26,06,09,3.70
2011,04,26,06,10,3.60
2011,04,26,06,11,3.60
2011,04,26,06,12,3.60
2011,04,26,06,13,3.50
2011,04,26,06,14,3.50
2011,04,26,06,15,3.50
2011,04,26,06,16,3.40
2011,04,26,06,17,3.40
2011,04,26,06,18,3.40
2011,04,26,06,19,3.40
2011,04,26,06,20,3.40
2011,04,26,06,21,3.40
2011,04,26,06,22,3.40
2011,04,26,06,23,3.40
2011,04,26,06,24,3.40
2011,04,26,06,25,3.40
2011,04,26,06,26,3.40
2011,04,26,06,27,3.40
2011,04,26,06,28,3.40
2011,04,26,06,29,3.40
2011,04,26,06,30,3.40
2011,04,26,06,31,3.40
2011,04,26,06,32,3.40
2011,04,26,06,33,3.40
2011,04,26,06,34,3.40
2011,04,26,06,35,3.40
2011,04,26,06,36,3.40
2011,04,26,06,37,3.40
2011,04,26,06,38,3.40
2011,04,26,06,39,3.40
2011,04,26,06,40,3.40
2011,04,26,06,41,3.40
2011,04,26,06,42,3.40
2011,04,26,06,43,3.40
2011,04,26,06,44,3.50
2011,04,26,06,45,3.50
2011,04,26,06,46,3.50
2011,04,26,06,47,3.50
2011,04,26,06,48,3.50
2011,04,26,06,49,3.50
2011,04,26,06,50,3.50
2011,04,26,06,51,3.50
2011,04,26,06,52,3.50
2011,04,26,06,53,3.50
2011,04,26,06,54,3.50
2011,04,26,06,55,3.60
2011,04,26,06,56,3.60
2011,04,26,06,57,3.60
2011,04,26,06,58,3.60
2011,04,26,06,59,3.60
2011,04,26,07,00,3.70
2011,04,26,07,01,3.70
2011,04,26,07,02,3.70
2011,04,26,07,03,3.80
2011,04,26,07,04,3.80
2011,04,26,07,05,3.90
2011,04,26,07,06,4.00
2011,04,26,07,07,4.00
2011,04,26,07,08,4.10
2011,04,26,07,09,4.20
2011,04,26,07,10,4.20
2011,04,26,07,11,4.30
2011,04,26,07,12,4.40
2011,04,26,07,13,4.50
2011,04,26,07,14,4.50
2011,04,26,07,15,4.60
2011,04,26,07,16,4.70
2011,04,26,07,17,4.80
2011,04,26,07,18,4.80
2011,04,26,07,19,4.90
2011,04,26,07,20,5.00
2011,04,26,07,21,5.00
2011,04,26,07,22,5.10
2011,04,26,07,23,5.10
2011,04,26,07,24,5.20
2011,04,26,07,25,5.20
2011,04,26,07,26,5.30
2011,04,26,07,27,5.30
2011,04,26,07,28,5.40
2011,04,26,07,29,5.40
2011,04,26,07,30,5.40
2011,04,26,07,31,5.50
2011,04,26,07,32,5.50
2011,04,26,07,33,5.60
2011,04,26,07,34,5.60
2011,04,26,07,35,5.60
2011,04,26,07,36,5.70
2011,04,26,07,37,5.70
2011,04,26,07,38,5.80
2011,04,26,07,39,5.80
2011,04,26,07,40,5.80
2011,04,26,07,41,5.80
2011,04,26,07,42,5.90
2011,04,26,07,43,5.90
2011,04,26,07,44,6.00
2011,04,26,07,45,6.00
2011,04,26,07,46,6.10
2011,04,26,07,47,6.10
2011,04,26,07,48,6.10
2011,04,26,07,49,6.20
2011,04,26,07,50,6.20
2011,04,26,07,51,6.20
2011,04,26,07,52,6.30
2011,04,26,07,53,6.30
2011,04,26,07,54,6.40
2011,04,26,07,55,6.40
2011,04,26,07,56,6.50
2011,04,26,07,57,6.50
2011,04,26,07,58,6.60
2011,04,26,07,59,6.70
2011,04,26,08,00,6.70
2011,04,26,08,01,6.80
2011,04,26,08,02,6.80
2011,04,26,08,03,6.90
2011,04,26,08,04,7.00
2011,04,26,08,05,7.00
2011,04,26,08,06,7.10
2011,04,26,08,07,7.10
2011,04,26,08,08,7.20
2011,04,26,08,09,7.20
2011,04,26,08,10,7.30
2011,04,26,08,11,7.30
2011,04,26,08,12,7.30
2011,04,26,08,13,7.30
2011,04,26,08,14,7.40
2011,04,26,08,15,7.40
2011,04,26,08,16,7.40
2011,04,26,08,17,7.40
2011,04,26,08,18,7.40
2011,04,26,08,19,7.40
2011,04,26,08,20,7.30
2011,04,26,08,21,7.30
2011,04,26,08,22,7.30
2011,04,26,08,23,7.30
2011,04,26,08,24,7.30
2011,04,26,08,25,7.30
2011,04,26,08,26,7.30
2011,04,26,08,27,7.30
2011,04,26,08,28,7.30
2011,04,26,08,29,7.30
2011,04,26,08,30,7.30
2011,04,26,08,31,7.30
2011,04,26,08,32,7.30
2011,04,26,08,33,7.30
2011,04,26,08,34,7.30
2011,04,26,08,35,7.30
2011,04,26,08,36,7.30
2011,04,26,08,37,7.40
2011,04,26,08,38,7.40
2011,04,26,08,39,7.40
2011,04,26,08,40,7.40
2011,04,26,08,41,7.50
2011,04,26,08,42,7.50
2011,04,26,08,43,7.60
2011,04,26,08,44,7.60
2011,04,26,08,45,7.70
2011,04,26,08,46,7.70
2011,04,26,08,47,7.70
2011,04,26,08,48,7.80
2011,04,26,08,49,7.80
2011,04,26,08,50,7.80
2011,04,26,08,51,7.80
2011,04,26,08,52,7.80
2011,04,26,08,53,7.80
2011,04,26,08,54,7.90
2011,04,26,08,55,7.90
2011,04,26,08,56,7.90
2011,04,26,08,57,8.00
2011,04,26,08,58,8.00
2011,04,26,08,59,8.10
2011,04,26,09,00,8.20
2011,04,26,09,01,8.20
2011,04,26,09,02,8.30
2011,04,26,09,03,8.40
2011,04,26,09,04,8.40
2011,04,26,09,05,8.50
2011,04,26,09,06,8.50
2011,04,26,09,07,8.60
2011,04,26,09,08,8.70
2011,04,26,09,09,8.70
2011,04,26,09,10,8.70
2011,04,26,09,11,8.70
2011,04,26,09,12,8.80
2011,04,26,09,13,8.80
2011,04,26,09,14,8.80
2011,04,26,09,15,8.80
2011,04,26,09,16,8.80
2011,04,26,09,17,8.80
2011,04,26,09,18,8.80
2011,04,26,09,19,8.80
2011,04,26,09,20,8.80
2011,04,26,09,21,8.80
2011,04,26,09,22,8.90
2011,04,26,09,23,8.90
2011,04,26,09,24,9.00
2011,04,26,09,25,9.00
2011,04,26,09,26,9.00
2011,04,26,09,27,9.10
2011,04,26,09,28,9.20
2011,04,26,09,29,9.20
2011,04,26,09,30,9.30
2011,04,26,09,31,9.40
2011,04,26,09,32,9.40
2011,04,26,09,33,9.50
2011,04,26,09,34,9.50
2011,04,26,09,35,9.60
2011,04,26,09,36,9.60
2011,04,26,09,37,9.60
2011,04,26,09,38,9.60
2011,04,26,09,39,9.60
2011,04,26,09,40,9.60
2011,04,26,09,41,9.60
2011,04,26,09,42,9.60
2011,04,26,09,43,9.60
2011,04,26,09,44,9.70
2011,04,26,09,45,9.70
2011,04,26,09,46,9.80
2011,04,26,09,47,9.80
2011,04,26,09,48,9.90
2011,04,26,09,49,9.90
2011,04,26,09,50,10.00
2011,04,26,09,51,10.00
2011,04,26,09,52,10.10
2011,04,26,09,53,10.10
2011,04,26,09,54,10.10
2011,04,26,09,55,10.20
2011,04,26,09,56,10.20
2011,04,26,09,57,10.20
2011,04,26,09,58,10.20
2011,04,26,09,59,10.20
2011,04,26,10,00,10.20
2011,04,26,10,01,10.30
2011,04,26,10,02,10.30
2011,04,26,10,03,10.30
2011,04,26,10,04,10.40
2011,04,26,10,05,10.50
2011,04,26,10,06,10.60
2011,04,26,10,07,10.60
2011,04,26,10,08,10.70
2011,04,26,10,09,10.70
2011,04,26,10,10,10.70
2011,04,26,10,11,10.70
2011,04,26,10,12,10.60
2011,04,26,10,13,10.50
2011,04,26,10,14,10.40
2011,04,26,10,15,10.40
2011,04,26,10,16,10.30
2011,04,26,10,17,10.30
2011,04,26,10,18,10.30
2011,04,26,10,19,10.20
2011,04,26,10,20,10.20
2011,04,26,10,21,10.20
2011,04,26,10,22,10.20
2011,04,26,10,23,10.20
2011,04,26,10,24,10.10
2011,04,26,10,25,10.10
2011,04,26,10,26,10.10
2011,04,26,10,27,10.10
2011,04,26,10,28,10.10
2011,04,26,10,29,10.00
2011,04,26,10,30,10.00
2011,04,26,10,31,10.00
2011,04,26,10,32,10.00
2011,04,26,10,33,10.00
2011,04,26,10,34,10.00
2011,04,26,10,35,10.10
2011,04,26,10,36,10.10
2011,04,26,10,37,10.20
2011,04,26,10,38,10.30
2011,04,26,10,39,10.30
2011,04,26,10,40,10.40
2011,04,26,10,41,10.50
2011,04,26,10,42,10.60
2011,04,26,10,43,10.60
2011,04,26,10,44,10.60
2011,04,26,10,45,10.60
2011,04,26,10,46,10.60
2011,04,26,10,47,10.60
2011,04,26,10,48,10.60
2011,04,26,10,49,10.50
2011,04,26,10,50,10.50
2011,04,26,10,51,10.40
2011,04,26,10,52,10.30
2011,04,26,10,53,10.30
2011,04,26,10,54,10.20
2011,04,26,10,55,10.20
2011,04,26,10,56,10.10
2011,04,26,10,57,10.10
2011,04,26,10,58,10.10
2011,04,26,10,59,10.10
2011,04,26,11,00,10.10
2011,04,26,11,01,10.20
2011,04,26,11,02,10.20
2011,04,26,11,03,10.20
2011,04,26,11,04,10.20
2011,04,26,11,05,10.20
2011,04,26,11,06,10.30
2011,04,26,11,07,10.30
2011,04,26,11,08,10.30
2011,04,26,11,09,10.30
2011,04,26,11,10,10.30
2011,04,26,11,11,10.30
2011,04,26,11,12,10.30
2011,04,26,11,13,10.40
2011,04,26,11,14,10.40
2011,04,26,11,15,10.40
2011,04,26,11,16,10.50
2011,04,26,11,17,10.50
2011,04,26,11,18,10.50
2011,04,26,11,19,10.60
2011,04,26,11,20,10.60
2011,04,26,11,21,10.60
2011,04,26,11,22,10.60
2011,04,26,11,23,10.60
2011,04,26,11,24,10.60
2011,04,26,11,25,10.60
2011,04,26,11,26,10.60
2011,04,26,11,27,10.60
2011,04,26,11,28,10.60
2011,04,26,11,29,10.60
2011,04,26,11,30,10.60
2011,04,26,11,31,10.60
2011,04,26,11,32,10.60
2011,04,26,11,33,10.60
2011,04,26,11,34,10.60
2011,04,26,11,35,10.60
2011,04,26,11,36,10.60
2011,04,26,11,37,10.70
2011,04,26,11,38,10.70
2011,04,26,11,39,10.70
2011,04,26,11,40,10.80
2011,04,26,11,41,10.80
2011,04,26,11,42,10.80
2011,04,26,11,43,10.80
2011,04,26,11,44,10.80
2011,04,26,11,45,10.80
2011,04,26,11,46,10.90
2011,04,26,11,47,10.90
2011,04,26,11,48,11.00
2011,04,26,11,49,11.00
2011,04,26,11,50,11.10
2011,04,26,11,51,11.10
2011,04,26,11,52,11.00
2011,04,26,11,53,11.00
2011,04,26,11,54,10.90
2011,04,26,11,55,10.80
2011,04,26,11,56,10.60
2011,04,26,11,57,10.50
2011,04,26,11,58,10.50
2011,04,26,11,59,10.40
2011,04,26,12,00,10.30
2011,04,26,12,01,10.30
2011,04,26,12,02,10.20
2011,04,26,12,03,10.20
2011,04,26,12,04,10.20
2011,04,26,12,05,10.10
2011,04,26,12,06,10.10
2011,04,26,12,07,10.10
2011,04,26,12,08,10.10
2011,04,26,12,09,10.10
2011,04,26,12,10,10.00
2011,04,26,12,11,10.00
2011,04,26,12,12,10.00
2011,04,26,12,13,10.00
2011,04,26,12,14,10.10
2011,04,26,12,15,10.10
2011,04,26,12,16,10.10
2011,04,26,12,17,10.10
2011,04,26,12,18,10.10
2011,04,26,12,19,10.20
2011,04,26,12,20,10.20
2011,04,26,12,21,10.20
2011,04,26,12,22,10.20
2011,04,26,12,23,10.30
2011,04,26,12,24,10.30
2011,04,26,12,25,10.30
2011,04,26,12,26,10.30
2011,04,26,12,27,10.30
2011,04,26,12,28,10.30
2011,04,26,12,29,10.30
2011,04,26,12,30,10.30
2011,04,26,12,31,10.30
2011,04,26,12,32,10.30
2011,04,26,12,33,10.30
2011,04,26,12,34,10.30
2011,04,26,12,35,10.30
2011,04,26,12,36,10.30
2011,04,26,12,37,10.30
2011,04,26,12,38,10.30
2011,04,26,12,39,10.30
2011,04,26,12,40,10.40
2011,04,26,12,41,10.40
2011,04,26,12,42,10.50
2011,04,26,12,43,10.50
2011,04,26,12,44,10.60
2011,04,26,12,45,10.70
2011,04,26,12,46,10.80
2011,04,26,12,47,10.90
2011,04,26,12,48,10.90
2011,04,26,12,49,11.00
2011,04,26,12,50,11.10
2011,04,26,12,51,11.20
2011,04,26,12,52,11.20
2011,04,26,12,53,11.30
2011,04,26,12,54,11.40
2011,04,26,12,55,11.50
2011,04,26,12,56,11.60
2011,04,26,12,57,11.60
2011,04,26,12,58,11.40
2011,04,26,12,59,11.30
2011,04,26,13,00,11.20
2011,04,26,13,01,11.10
2011,04,26,13,02,11.00
2011,04,26,13,03,10.90
2011,04,26,13,04,10.90
2011,04,26,13,05,10.80
2011,04,26,13,06,10.80
2011,04,26,13,07,10.90
2011,04,26,13,08,10.90
2011,04,26,13,09,10.90
2011,04,26,13,10,11.00
2011,04,26,13,11,11.00
2011,04,26,13,12,11.10
2011,04,26,13,13,11.20
2011,04,26,13,14,11.30
2011,04,26,13,15,11.30
2011,04,26,13,16,11.40
2011,04,26,13,17,11.50
2011,04,26,13,18,11.50
2011,04,26,13,19,11.60
2011,04,26,13,20,11.60
2011,04,26,13,21,11.70
2011,04,26,13,22,11.70
2011,04,26,13,23,11.80
2011,04,26,13,24,11.80
2011,04,26,13,25,11.90
2011,04,26,13,26,11.90
2011,04,26,13,27,11.90
2011,04,26,13,28,11.90
2011,04,26,13,29,12.00
2011,04,26,13,30,12.00
2011,04,26,13,31,12.10
2011,04,26,13,32,12.10
2011,04,26,13,33,12.10
2011,04,26,13,34,12.10
2011,04,26,13,35,12.10
2011,04,26,13,36,12.10
2011,04,26,13,37,12.00
2011,04,26,13,38,12.00
2011,04,26,13,39,11.90
2011,04,26,13,40,11.90
2011,04,26,13,41,11.80
2011,04,26,13,42,11.80
2011,04,26,13,43,11.80
2011,04,26,13,44,11.80
2011,04,26,13,45,11.70
2011,04,26,13,46,11.70
2011,04,26,13,47,11.70
2011,04,26,13,48,11.70
2011,04,26,13,49,11.70
2011,04,26,13,50,11.70
2011,04,26,13,51,11.60
2011,04,26,13,52,11.50
2011,04,26,13,53,11.30
2011,04,26,13,54,11.20
2011,04,26,13,55,11.00
2011,04,26,13,56,10.90
2011,04,26,13,57,10.80
2011,04,26,13,58,10.70
2011,04,26,13,59,10.70
2011,04,26,14,00,10.60
2011,04,26,14,01,10.60
2011,04,26,14,02,10.60
2011,04,26,14,03,10.60
2011,04,26,14,04,10.60
2011,04,26,14,05,10.60
2011,04,26,14,06,10.60
2011,04,26,14,07,10.70
2011,04,26,14,08,10.70
2011,04,26,14,09,10.70
2011,04,26,14,10,10.70
2011,04,26,14,11,10.70
2011,04,26,14,12,10.70
2011,04,26,14,13,10.70
2011,04,26,14,14,10.70
2011,04,26,14,15,10.70
2011,04,26,14,16,10.70
2011,04,26,14,17,10.70
2011,04,26,14,18,10.70
2011,04,26,14,19,10.70
2011,04,26,14,20,10.70
2011,04,26,14,21,10.70
2011,04,26,14,22,10.70
2011,04,26,14,23,10.70
2011,04,26,14,24,10.70
2011,04,26,14,25,10.70
2011,04,26,14,26,10.70
2011,04,26,14,27,10.70
2011,04,26,14,28,10.70
2011,04,26,14,29,10.70
2011,04,26,14,30,10.70
2011,04,26,14,31,10.70
2011,04,26,14,32,10.70
2011,04,26,14,33,10.70
2011,04,26,14,34,10.70
2011,04,26,14,35,10.70
2011,04,26,14,36,10.70
2011,04,26,14,37,10.60
2011,04,26,14,38,10.60
2011,04,26,14,39,10.60
2011,04,26,14,40,10.60
2011,04,26,14,41,10.50
2011,04,26,14,42,10.50
2011,04,26,14,43,10.50
2011,04,26,14,44,10.40
2011,04,26,14,45,10.40
2011,04,26,14,46,10.40
2011,04,26,14,47,10.40
2011,04,26,14,48,10.40
2011,04,26,14,49,10.40
2011,04,26,14,50,10.40
2011,04,26,14,51,10.40
2011,04,26,14,52,10.40
2011,04,26,14,53,10.40
2011,04,26,14,54,10.40
2011,04,26,14,55,10.50
2011,04,26,14,56,10.50
2011,04,26,14,57,10.50
2011,04,26,14,58,10.50
2011,04,26,14,59,10.50
2011,04,26,15,00,10.50
2011,04,26,15,01,10.60
2011,04,26,15,02,10.60
2011,04,26,15,03,10.60
2011,04,26,15,04,10.60
2011,04,26,15,05,10.60
2011,04,26,15,06,10.70
2011,04,26,15,07,10.70
2011,04,26,15,08,10.70
2011,04,26,15,09,10.80
2011,04,26,15,10,10.80
2011,04,26,15,11,10.80
2011,04,26,15,12,10.80
2011,04,26,15,13,10.80
2011,04,26,15,14,10.90
2011,04,26,15,15,10.90
2011,04,26,15,16,10.90
2011,04,26,15,17,10.80
2011,04,26,15,18,10.80
2011,04,26,15,19,10.80
2011,04,26,15,20,10.80
2011,04,26,15,21,10.70
2011,04,26,15,22,10.70
2011,04,26,15,23,10.70
2011,04,26,15,24,10.70
2011,04,26,15,25,10.60
2011,04,26,15,26,10.60
2011,04,26,15,27,10.60
2011,04,26,15,28,10.60
2011,04,26,15,29,10.60
2011,04,26,15,30,10.70
2011,04,26,15,31,10.70
2011,04,26,15,32,10.70
2011,04,26,15,33,10.80
2011,04,26,15,34,10.80
2011,04,26,15,35,10.90
2011,04,26,15,36,11.00
2011,04,26,15,37,11.00
2011,04,26,15,38,11.10
2011,04,26,15,39,11.10
2011,04,26,15,40,11.20
2011,04,26,15,41,11.20
2011,04,26,15,42,11.20
2011,04,26,15,43,11.30
2011,04,26,15,44,11.30
2011,04,26,15,45,11.30
2011,04,26,15,46,11.30
2011,04,26,15,47,11.40
2011,04,26,15,48,11.40
2011,04,26,15,49,11.50
2011,04,26,15,50,11.50
2011,04,26,15,51,11.60
2011,04,26,15,52,11.60
2011,04,26,15,53,11.70
2011,04,26,15,54,11.70
2011,04,26,15,55,11.80
2011,04,26,15,56,11.90
2011,04,26,15,57,11.90
2011,04,26,15,58,12.00
2011,04,26,15,59,12.00
2011,04,26,16,00,12.10
2011,04,26,16,01,12.20
2011,04,26,16,02,12.30
2011,04,26,16,03,12.30
2011,04,26,16,04,12.30
2011,04,26,16,05,12.30
2011,04,26,16,06,12.30
2011,04,26,16,07,12.30
2011,04,26,16,08,12.30
2011,04,26,16,09,12.30
2011,04,26,16,10,12.30
2011,04,26,16,11,12.30
2011,04,26,16,12,12.30
2011,04,26,16,13,12.30
2011,04,26,16,14,12.30
2011,04,26,16,15,12.30
2011,04,26,16,16,12.20
2011,04,26,16,17,12.20
2011,04,26,16,18,12.20
2011,04,26,16,19,12.10
2011,04,26,16,20,12.10
2011,04,26,16,21,12.10
2011,04,26,16,22,12.10
2011,04,26,16,23,12.00
2011,04,26,16,24,12.00
2011,04,26,16,25,12.00
2011,04,26,16,26,12.00
2011,04,26,16,27,11.90
2011,04,26,16,28,11.90
2011,04,26,16,29,11.90
2011,04,26,16,30,11.90
2011,04,26,16,31,11.90
2011,04,26,16,32,11.90
2011,04,26,16,33,11.80
2011,04,26,16,34,11.80
2011,04,26,16,35,11.80
2011,04,26,16,36,11.70
2011,04,26,16,37,11.60
2011,04,26,16,38,11.50
2011,04,26,16,39,11.50
2011,04,26,16,40,11.40
2011,04,26,16,41,11.40
2011,04,26,16,42,11.30
2011,04,26,16,43,11.30
2011,04,26,16,44,11.30
2011,04,26,16,45,11.30
2011,04,26,16,46,11.30
2011,04,26,16,47,11.30
2011,04,26,16,48,11.30
2011,04,26,16,49,11.30
2011,04,26,16,50,11.30
2011,04,26,16,51,11.30
2011,04,26,16,52,11.30
2011,04,26,16,53,11.30
2011,04,26,16,54,11.30
2011,04,26,16,55,11.40
2011,04,26,16,56,11.40
2011,04,26,16,57,11.50
2011,04,26,16,58,11.60
2011,04,26,16,59,11.60
2011,04,26,17,00,11.70
2011,04,26,17,01,11.70
2011,04,26,17,02,11.70
2011,04,26,17,03,11.80
2011,04,26,17,04,11.80
2011,04,26,17,05,11.80
2011,04,26,17,06,11.80
2011,04,26,17,07,11.80
2011,04,26,17,08,11.80
2011,04,26,17,09,11.80
2011,04,26,17,10,11.80
2011,04,26,17,11,11.70
2011,04,26,17,12,11.80
2011,04,26,17,13,11.80
2011,04,26,17,14,11.80
2011,04,26,17,15,11.80
2011,04,26,17,16,11.80
2011,04,26,17,17,11.80
2011,04,26,17,18,11.80
2011,04,26,17,19,11.70
2011,04,26,17,20,11.70
2011,04,26,17,21,11.70
2011,04,26,17,22,11.70
2011,04,26,17,23,11.70
2011,04,26,17,24,11.60
2011,04,26,17,25,11.60
2011,04,26,17,26,11.60
2011,04,26,17,27,11.60
2011,04,26,17,28,11.60
2011,04,26,17,29,11.50
2011,04,26,17,30,11.50
2011,04,26,17,31,11.50
2011,04,26,17,32,11.50
2011,04,26,17,33,11.50
2011,04,26,17,34,11.50
2011,04,26,17,35,11.60
2011,04,26,17,36,11.60
2011,04,26,17,37,11.60
2011,04,26,17,38,11.70
2011,04,26,17,39,11.70
2011,04,26,17,40,11.80
2011,04,26,17,41,11.80
2011,04,26,17,42,11.80
2011,04,26,17,43,11.80
2011,04,26,17,44,11.90
2011,04,26,17,45,11.90